User: anonymous   Login
Location: Guayaquil
(2.1667°S, 79.9000°W)
Time: 11:55:17
(UTC-05:00)
Language:

NEE 01 PEGASUS - Orbit

View from above orbital plane
View from above orbital plane
View from above satellite
View from above satellite

Ground track
Ground track

The orbit data is extracted from the following two-line orbital elements,

1 39151U 13018B   17230.98963075  .00000183  00000-0  31310-4 0  9996
2 39151  97.9837 322.1146 0016629 202.5722 157.4760 14.79743029232820
Epoch (UTC): 18 August 2017 23:45:04
Eccentricity: 0.0016629
inclination: 97.9837°
perigee height: 618 km
apogee height: 642 km
right ascension of ascending node: 322.1146°
argument of perigee: 202.5722°
revolutions per day: 14.79743029
mean anomaly at epoch: 157.4760°
orbit number at epoch: 23282

The dashed part of the orbit path shows where the satellite is in the earth's shadow,  

DLR